Home > Weather > Grenoble > Past weeks

Flag for France Weather for the Past 2 Weeks in Grenoble, France

Now
45 °F

Partly sunny.


Feels Like: 42 °F
Forecast: 39 / 45 °F
Wind: 5 mph from Northeast

Location: Grenoble / St. Geoirs

Current Time: Feb 14, 2016 at 2:18:34 PM

Latest Report: Feb 14, 2016 at 2:00 PM


Visibility: N/A

Pressure: 29.36 "Hg

Humidity: 81%

Dew point: 39 °F

Location of GrenobleLocation

Historic Weather in Grenoble — Graph

°F

Grenoble Temperature Yesterday

Maximum temperature yesterday: 55 °F (at 3:30 PM)
Minimum temperature yesterday: 41 °F (at 5:30 AM)
Average temperature yesterday: 47 °F

High & Low Weather Summary for the Past Weeks

 TemperatureHumidityPressure
High57 °F (Feb 2, 2:30 PM)100% (Jan 31, 2:30 PM)30.54 "Hg (Jan 31, 2:30 PM)
Low28 °F (Feb 11, 7:00 AM)44% (Feb 6, 6:00 PM)29.15 "Hg (Feb 14, 7:00 AM)
Average45 °F80%29.98 "Hg
* Reported Jan 30 1:00 PM — Feb 14 1:00 PM, Grenoble, Weather by CustomWeather, © 2016

Note: Actual official high and low records may vary slightly from our data, if they occured in-between our weather recording intervals... More about our weather records

Advertising

Grenoble Weather History for the Previous 24 Hours

 ConditionsComfort  
Time TempWeatherWind HumidityBarometerVisibility
1:00 PM
Sun, Feb 14
48 °FPartly sunny.1 mph66%29.36 "HgN/A
12:30 PM50 °FPassing clouds.5 mph67%29.33 "HgN/A
12:00 PM48 °FMostly cloudy.3 mph66%29.33 "HgN/A
11:30 AM46 °FMostly cloudy.No wind66%29.33 "HgN/A
11:00 AM45 °FPartly sunny.1 mph76%29.36 "HgN/A
10:30 AM45 °FMostly cloudy.6 mph76%29.33 "HgN/A
10:00 AM45 °FMostly cloudy.7 mph81%29.33 "HgN/A
9:30 AM43 °FMostly cloudy.13 mph81%29.30 "HgN/A
8:30 AM46 °FLight rain. More clouds than sun.25 mph82%29.24 "HgN/A
8:00 AM48 °FDrizzle. Broken clouds.24 mph82%29.18 "HgN/A
7:30 AM48 °FLight rain. Mostly cloudy.21 mph76%29.18 "HgN/A
7:00 AM48 °FMostly cloudy.12 mph76%29.15 "HgN/A
6:30 AM46 °FPartly cloudy.8 mph82%29.18 "HgN/A
6:00 AM46 °FOvercast.3 mph82%29.18 "HgN/A
5:30 AM48 °FMostly cloudy.5 mph76%29.18 "HgN/A
5:00 AM46 °FPassing clouds.9 mph82%29.21 "HgN/A
4:30 AM46 °FOvercast.5 mph82%29.21 "HgN/A
4:00 AM46 °FMostly cloudy.6 mph82%29.24 "HgN/A
3:30 AM46 °FOvercast.3 mph82%29.27 "HgN/A
3:00 AM46 °FMostly cloudy.1 mph76%29.27 "HgN/A
2:30 AM48 °FLight rain. Passing clouds.1 mph71%29.30 "HgN/A
2:00 AM50 °FMostly cloudy.3 mph62%29.30 "HgN/A
1:30 AM50 °FOvercast.7 mph62%29.33 "HgN/A
1:00 AM52 °FOvercast.10 mph58%29.36 "HgN/A
12:30 AM50 °FMostly cloudy.12 mph62%29.36 "HgN/A
12:00 AM50 °FOvercast.10 mph62%29.36 "HgN/A
11:30 PM
Sat, Feb 13
50 °FMostly cloudy.8 mph62%29.39 "HgN/A
10:30 PM52 °FOvercast.10 mph62%29.39 "HgN/A
10:00 PM52 °FPassing clouds.12 mph62%29.39 "HgN/A
9:30 PM50 °FOvercast.15 mph67%29.39 "HgN/A
9:00 PM50 °FPassing clouds.15 mph67%29.42 "HgN/A
8:30 PM50 °FPassing clouds.16 mph67%29.39 "HgN/A
8:00 PM50 °FPartly cloudy.16 mph67%29.42 "HgN/A
7:30 PM50 °FPassing clouds.16 mph67%29.42 "HgN/A
7:00 PM50 °FPassing clouds.17 mph67%29.39 "HgN/A
6:30 PM50 °FMostly cloudy.22 mph71%29.39 "HgN/A
6:00 PM50 °FPartly sunny.23 mph71%29.39 "HgN/A
5:30 PM50 °FScattered clouds.23 mph71%29.36 "HgN/A
5:00 PM52 °FPartly sunny.22 mph67%29.36 "HgN/A
4:30 PM50 °FLight rain. Broken clouds.21 mph76%29.36 "HgN/A
4:00 PM52 °FPartly sunny.24 mph67%29.33 "HgN/A
3:30 PM55 °FPartly sunny.21 mph63%29.33 "HgN/A
3:00 PM54 °FPartly sunny.25 mph67%29.33 "HgN/A
2:30 PM54 °FPartly sunny.26 mph63%29.33 "HgN/A
2:00 PM54 °FScattered clouds.23 mph67%29.36 "HgN/A
Weather by CustomWeather, © 2016

See weather overviewHow to use our weather pages